Theta_e
308 305 307 310 311 313 316 318 320 320 320 321 322 322 322 323 324 323 324 325 325 327 327 327 327 328 329 327 328 328 328 327 329 329 333 337 342 343 343 342 341 336 335 333
306 307 308 309 311 312 313 314 316 316 317 320 321 321 322 322 323 323 324 324 325 326 326 327 327 329 328 328 328 328 327 327 329 330 334 341 344 344 342 340 339 336 334 332
307 311 311 309 310 312 313 313 315 316 316 316 315 316 317 318 319 320 322 323 325 326 327 328 328 328 327 327 327 327 327 328 331 332 337 342 344 343 343 341 339 338 332 332
305 306 307 310 310 310 313 314 315 314 315 315 317 316 316 317 318 319 320 323 324 324 324 325 327 328 328 327 329 330 331 332 335 337 342 344 343 343 342 341 337 334 332 332
306 306 307 309 310 313 311 313 315 315 315 314 315 316 317 318 319 320 320 321 322 324 325 326 326 326 327 329 330 333 334 335 339 343 345 345 343 342 338 332 332 332 333 333
307 307 307 306 307 308 309 313 313 313 313 314 315 315 316 316 318 320 320 322 323 323 324 325 325 326 329 331 334 335 336 343 345 345 344 342 339 335 334 333 334 333 332 332
311 312 312 312 308 308 307 308 311 313 314 317 315 316 317 317 317 318 319 320 323 324 324 326 329 329 332 335 336 335 338 343 344 344 341 337 337 333 332 333 333 331 331 331
312 312 312 313 313 307 306 306 310 313 316 316 316 316 316 317 318 319 320 321 322 322 326 331 333 334 336 337 336 337 340 342 342 340 337 333 332 333 332 332 332 331 331 329
311 312 312 311 310 310 310 307 308 310 313 315 316 316 317 318 318 318 318 321 328 334 335 336 337 337 337 337 336 338 341 340 337 334 333 333 333 332 332 330 329 329 326 326
309 310 310 310 309 309 311 311 309 308 313 314 316 318 318 318 318 318 317 330 336 337 337 338 338 338 337 337 337 337 338 336 334 333 332 333 329 329 331 331 329 327 326 325
309 309 310 311 310 308 309 312 309 309 310 315 316 317 317 318 317 318 318 333 336 337 337 338 338 337 337 336 335 336 335 334 333 332 331 329 331 331 330 329 329 327 328 328
311 310 312 310 309 311 311 310 311 311 310 313 314 316 317 318 318 322 325 334 335 336 337 337 337 337 336 334 335 334 333 332 330 330 330 330 330 330 330 329 329 327 328 327
310 309 310 308 311 311 313 314 317 313 311 312 315 315 317 317 319 330 333 334 335 336 337 337 337 336 336 336 334 332 331 331 329 331 332 330 329 331 330 330 327 325 327 327
311 310 310 308 311 312 316 316 315 315 314 313 313 315 317 317 317 331 333 334 334 336 337 337 336 336 336 335 334 333 331 330 330 331 330 329 329 330 329 329 326 326 326 326
309 312 311 311 312 312 314 316 315 315 315 317 317 318 317 317 318 326 333 333 334 335 336 336 336 336 336 335 334 333 330 331 331 330 330 329 330 329 329 329 327 327 327 326
309 311 313 312 313 313 315 315 315 314 314 315 317 320 318 316 326 332 333 333 335 335 335 336 336 336 336 335 334 332 330 331 331 331 329 329 329 329 329 328 327 327 327 327
311 312 312 312 314 315 316 315 315 317 315 317 318 319 320 331 334 333 333 334 334 335 335 336 335 336 336 335 332 330 330 329 330 330 329 329 328 328 328 327 328 328 327 327
309 308 311 313 314 316 318 317 320 323 317 324 328 327 328 330 329 331 332 333 334 334 335 335 335 336 335 334 330 328 329 329 330 330 329 329 329 328 327 327 327 327 327 326
308 309 310 315 318 317 320 316 319 322 324 326 325 327 328 328 324 329 331 331 334 335 335 335 335 335 335 334 329 327 329 329 329 329 330 330 329 328 328 328 328 327 327 327
308 309 311 314 317 321 316 312 312 315 328 324 322 324 327 326 329 329 329 329 332 334 334 335 335 335 335 332 327 328 328 328 328 330 330 330 329 329 328 329 329 328 328 328
314 313 314 313 318 317 311 310 313 327 327 320 320 321 327 328 328 327 329 330 331 334 334 334 335 335 334 330 327 328 327 327 329 330 330 330 329 329 329 330 330 330 330 330
313 313 317 317 316 318 307 310 320 317 317 319 320 322 328 328 328 330 330 331 332 334 334 334 334 334 332 329 327 327 327 326 329 331 331 331 330 330 330 330 330 329 329 329
314 312 312 313 313 309 305 311 314 314 315 316 317 320 326 326 325 327 330 332 333 334 334 334 334 333 331 328 327 326 325 328 328 331 331 331 331 330 330 329 329 330 328 328
311 311 312 313 312 310 312 313 314 315 314 315 317 319 323 324 324 324 325 331 333 333 335 334 334 332 329 328 327 324 325 327 327 331 332 331 330 330 330 328 328 327 326 328
311 310 312 311 312 313 312 312 313 314 316 315 316 321 322 323 323 323 324 328 330 334 333 335 333 332 330 328 327 324 325 327 326 330 332 331 331 330 331 328 327 327 327 327
309 310 311 313 312 312 312 313 313 314 315 316 316 320 322 322 322 323 324 325 327 329 334 335 335 333 332 329 327 324 326 326 326 330 331 331 331 331 332 327 328 330 331 329
Wind_Speed
4 4 18 27 17 10 10 12 15 4 10 14 20 22 20 21 28 22 29 31 39 42 45 45 43 36 35 29 20 26 22 19 20 28 31 34 36 30 27 23 24 20 19 18
4 18 14 10 6 12 14 15 19 6 8 10 14 25 25 24 25 29 34 36 34 43 45 47 40 30 28 24 21 26 25 18 26 29 32 37 35 27 24 22 21 15 13 15
10 6 9 16 13 17 16 18 14 10 11 20 7 19 18 18 18 23 28 36 36 39 38 32 29 29 29 28 24 25 25 20 28 29 31 31 33 26 22 19 17 16 15 15
11 12 14 14 19 17 18 12 11 16 13 15 4 20 24 19 25 18 20 29 36 38 41 39 30 30 30 26 21 22 24 24 25 25 26 27 31 27 24 18 18 16 16 17
12 9 4 13 16 15 19 14 11 13 11 14 14 6 30 10 18 17 18 32 39 38 32 31 31 35 25 19 20 23 21 20 21 21 21 22 22 20 18 15 16 19 19 20
13 16 15 13 14 12 8 10 16 17 4 8 12 13 22 15 18 11 12 22 28 37 34 26 27 25 21 21 22 20 18 20 19 19 19 20 19 18 17 18 17 16 15 15
3 9 11 12 12 11 7 1 4 4 6 16 13 9 21 11 7 11 15 24 37 34 28 22 18 23 27 27 23 20 22 23 21 22 22 20 21 18 14 17 16 14 13 12
6 4 9 2 2 6 7 9 5 7 5 8 14 10 9 16 25 36 30 34 30 31 26 22 25 29 27 25 23 23 24 27 26 24 22 21 19 13 17 15 11 10 10 10
0 5 2 7 8 2 5 10 7 5 14 2 7 9 8 19 24 22 19 15 13 17 23 28 29 28 27 23 23 25 26 27 26 25 22 20 16 13 14 12 9 8 8 6
6 5 5 6 5 3 6 4 3 4 8 6 6 6 11 8 10 10 10 10 18 23 28 29 28 26 23 21 23 27 27 27 25 22 20 17 13 11 9 7 7 6 6 7
3 1 5 5 4 8 3 2 3 4 4 10 3 6 5 13 12 17 8 22 31 32 33 32 28 25 23 24 28 28 27 26 22 18 15 12 12 7 6 3 5 8 8 6
1 2 4 10 15 13 4 6 5 2 7 4 4 16 12 16 9 19 12 25 28 34 34 31 29 27 27 28 27 26 25 23 19 17 15 13 10 6 5 5 5 7 9 8
4 2 4 9 2 7 6 3 1 4 6 16 6 9 3 8 7 4 20 26 30 34 33 32 31 30 30 27 26 26 23 20 18 18 16 13 8 5 7 7 5 10 10 7
1 4 6 6 7 7 8 8 7 3 3 11 16 16 22 21 8 6 8 29 33 37 38 36 33 32 29 27 26 24 20 19 19 18 14 11 7 5 8 11 11 10 9 7
7 4 10 12 17 17 18 16 12 8 6 4 7 17 18 17 13 11 24 30 31 32 34 37 36 33 30 29 26 23 20 21 19 17 11 10 8 7 12 12 13 10 9 5
6 4 5 15 18 18 19 13 12 11 12 11 15 26 13 11 16 7 26 31 30 32 33 37 35 33 32 29 27 25 22 21 19 17 12 7 4 12 14 15 13 10 10 9
8 5 3 8 13 3 4 12 9 5 7 6 7 12 15 7 2 8 14 32 34 34 36 38 37 34 33 29 26 26 25 19 18 17 11 8 8 11 11 19 14 10 10 9
9 5 4 6 6 4 5 11 5 6 8 1 12 15 5 9 11 3 6 18 32 33 36 38 36 35 33 28 27 25 27 19 17 16 11 12 10 9 11 14 18 13 13 9
14 8 3 2 2 3 3 9 8 10 5 4 13 7 8 12 7 15 16 9 30 41 38 37 35 35 33 31 29 26 28 20 18 15 16 13 11 13 12 13 14 13 14 13
9 9 3 3 4 2 1 9 21 11 5 8 14 11 3 24 12 6 8 7 17 34 37 39 38 37 34 34 31 28 29 22 20 18 17 16 14 14 10 9 11 12 13 12
2 3 7 7 4 3 3 14 21 5 3 21 24 15 9 6 4 6 6 6 4 33 37 38 39 38 36 35 33 29 27 22 23 17 18 16 13 11 5 9 9 10 11 13
2 3 1 3 1 4 18 17 7 7 11 17 23 18 19 20 21 6 8 6 11 29 35 37 40 39 37 36 33 29 25 23 22 20 19 18 15 12 8 7 10 10 11 13
2 4 2 2 1 4 16 15 11 18 14 19 24 24 25 24 22 22 12 12 16 21 35 40 39 39 37 36 32 28 24 26 23 22 20 23 18 13 9 6 12 9 9 13
3 4 4 5 5 1 14 25 25 18 21 29 19 15 33 22 21 21 23 28 22 19 24 33 36 37 38 36 32 22 27 27 22 23 24 25 19 15 7 8 11 10 11 13
3 6 6 4 5 9 18 23 24 29 27 32 27 29 31 29 25 25 30 32 29 22 18 14 32 36 36 35 32 24 28 29 23 24 25 26 20 16 11 11 13 12 8 8
6 2 0 2 8 5 10 18 15 21 26 36 33 23 26 24 26 28 34 28 28 26 22 11 27 36 33 33 33 27 29 31 25 28 25 26 21 19 12 14 15 11 8 7
Wind_Direction
231 188 222 217 224 282 274 263 252 253 200 214 242 255 264 255 256 258 264 268 264 265 266 274 278 275 247 249 259 240 241 255 256 249 235 229 225 214 212 211 209 197 217 234
226 233 247 268 261 228 248 267 268 307 297 230 245 257 260 262 262 255 258 259 259 267 275 277 277 257 237 246 251 240 247 255 250 238 231 221 211 202 203 206 221 231 251 222
223 224 221 239 249 248 244 236 260 268 305 291 304 284 272 265 264 265 268 274 273 273 275 278 275 241 242 244 250 249 242 247 237 229 220 212 209 209 207 213 229 246 229 241
255 248 255 259 229 237 250 251 253 245 255 261 203 280 265 270 268 267 254 259 268 275 277 276 260 234 237 242 235 235 233 223 219 218 211 205 200 205 211 221 231 225 228 239
232 283 238 238 246 231 251 251 245 230 238 247 243 275 269 225 250 250 253 252 261 269 278 277 269 253 241 225 227 215 213 212 205 200 199 194 196 198 197 196 197 219 226 227
231 219 249 255 262 262 286 232 235 258 242 244 218 220 277 246 247 243 247 257 271 278 278 277 273 259 211 205 200 204 201 185 179 178 178 181 181 183 189 201 200 210 218 230
289 250 238 235 247 256 232 241 232 239 202 234 178 220 239 267 238 242 251 254 258 265 275 277 249 197 189 187 185 181 182 169 165 166 171 175 183 190 189 193 198 205 224 252
210 248 217 164 190 216 186 182 192 197 193 243 258 234 247 236 253 260 254 263 272 278 274 201 183 176 174 172 168 170 173 162 162 169 169 175 181 177 185 194 208 236 258 255
116 252 37 301 297 188 310 219 206 283 275 356 233 283 298 270 272 266 262 261 239 200 176 172 170 168 164 165 165 167 168 161 164 165 171 177 180 189 204 212 220 235 246 212
16 309 266 306 348 271 202 293 167 201 213 236 259 257 234 263 263 270 248 175 169 164 161 162 162 161 159 163 160 160 164 162 162 166 173 174 180 184 186 215 230 217 186 152
115 15 310 338 210 231 308 224 221 168 197 221 288 248 234 256 268 274 233 174 163 163 160 160 158 157 156 157 155 157 163 165 165 169 168 161 153 172 191 166 173 182 161 140
118 149 264 253 249 261 236 248 149 195 255 265 229 256 266 290 304 293 172 163 160 158 160 158 157 155 154 154 154 158 162 164 162 160 155 154 170 184 191 166 182 190 169 168
355 280 307 316 310 237 252 182 7 232 231 245 235 259 233 264 325 1 146 151 151 155 158 157 155 156 155 155 153 155 159 156 156 158 162 169 188 200 208 182 171 183 173 163
39 243 226 228 273 325 286 291 300 315 254 247 245 284 266 270 309 111 227 150 153 156 157 158 157 159 158 159 158 155 156 160 155 161 168 175 190 206 193 173 150 141 157 178
163 234 260 266 269 267 262 262 256 247 257 263 290 276 277 268 294 220 177 150 148 151 155 159 162 162 164 165 163 161 159 167 167 174 173 185 189 190 172 170 161 173 175 177
177 251 235 281 267 263 243 235 241 243 263 254 251 275 277 289 289 122 167 156 153 156 158 164 167 166 168 167 169 168 170 169 177 179 183 183 182 172 170 170 171 175 173 181
195 211 237 271 337 176 227 241 219 250 215 225 248 276 300 349 24 97 194 161 158 161 163 169 171 172 173 169 167 173 175 168 180 175 179 164 150 157 164 174 175 169 172 184
239 201 206 280 279 231 104 42 1 236 194 255 295 259 152 98 42 50 275 192 158 164 169 173 174 177 176 172 171 170 175 171 176 173 176 158 159 167 156 170 183 183 179 193
217 222 264 248 281 318 62 30 355 1 290 347 338 357 134 135 351 299 126 144 176 175 179 179 178 180 177 174 172 175 178 174 175 178 166 156 171 155 163 164 168 184 190 201
193 206 194 282 284 289 126 320 325 307 241 358 344 326 24 146 177 245 64 41 183 179 181 183 183 181 176 177 174 175 177 175 179 174 172 166 169 170 173 180 182 190 198 210
26 332 242 252 268 287 29 291 305 198 1 319 328 307 10 75 43 329 14 4 114 185 185 187 184 181 179 178 177 176 177 180 180 176 171 169 176 162 173 185 194 203 203 205
345 273 236 230 259 278 351 349 25 318 305 314 326 340 66 39 34 49 44 26 42 175 185 187 184 182 180 180 180 177 180 180 185 186 179 176 181 180 179 191 190 195 195 199
3 328 285 29 226 348 305 282 345 354 332 321 339 349 84 51 39 63 72 104 63 159 174 185 185 181 182 184 184 178 176 175 188 194 188 183 182 180 183 197 185 192 194 191
297 349 4 339 7 237 346 0 359 357 343 358 338 329 83 71 40 43 51 69 82 100 170 178 184 183 184 187 188 183 173 179 191 190 194 186 184 175 165 179 180 174 165 172
313 348 331 293 315 334 352 0 350 342 355 342 352 52 67 74 53 46 49 55 63 83 112 170 194 189 192 190 190 183 175 183 192 192 191 188 185 179 174 179 175 177 171 172
335 291 21 299 320 306 318 357 331 341 349 349 344 45 54 55 46 46 45 50 54 58 73 147 197 200 198 195 192 188 180 187 193 193 192 192 187 186 185 186 178 180 181 192